Weather History for Pensacola, FL

Change the Weather History Date:

Thursday, November 29, 2012

  Actual Average Record
Temperature  
Mean Temperature 54 °F 57 °F  
Max Temperature 65 °F 66 °F 77 °F (1949)
Min Temperature 43 °F 48 °F 27 °F (1955)
Degree Days  
Heating Degree Days 11 9  
Month to date heating degree days 178 164  
Since 1 July heating degree days 207 202  
Cooling Degree Days 0 1  
Month to date cooling degree days 25 45  
Year to date cooling degree days 3029 2595  
Growing Degree Days 4 (Base 50)    
Moisture  
Dew Point 45 °F    
Average Humidity 75    
Maximum Humidity 93    
Minimum Humidity 56    
Precipitation  
Precipitation 0.00 in 0.16 in 4.40 in (1997)
Month to date precipitation 1.23 4.56  
Year to date precipitation 64.54 60.55  
Snow  
Snow 0.00 in 0.00 in 0.00 in (2002)
Month to date snowfall 0.0 0.0  
Since 1 July snowfall 0.0 0.0  
Snow Depth 0.00 in    
Sea Level Pressure  
Sea Level Pressure 30.33 in    
Wind  
Wind Speed 4 mph (NNE)    
Max Wind Speed 9 mph    
Max Gust Speed 14 mph    
Visibility 8 miles    
Events      
T = Trace of Precipitation, MM = Missing Value Source: NWS Daily Summary

Daily Weather History Graph

Daily Weather History Graph

Search for Another Location

Airport:

Trip Planner

Search our weather history database for the weather conditions in past years. The results will help you decide how hot, cold, wet, or windy it might be!

Date:

Astronomy

Nov. 29, 2012 Rise Set
Actual Time 6:26 AM CST 4:47 PM CST
Civil Twilight 6:00 AM CST 5:13 PM CST
Nautical Twilight 5:31 AM CST 5:43 PM CST
Astronomical Twilight 5:02 AM CST 6:12 PM CST
Moon 5:50 PM CST (11/29) 7:12 AM CST (11/29)
Length of Visible Light 11h 12m
Length of Day
10h 20m
Full, 99% of the Moon is Illuminated
Nov 29
Full
Dec 6
Last Quarter
Dec 13
New
Dec 19
First Quarter
Dec 28
Full

Hourly Weather History & Observations

Time (CST) Temp. Windchill Dew Point Humidity Pressure Visibility Wind Dir Wind Speed Gust Speed Precip Events Conditions
12:53 AM 45.0 °F 43.5 °F 39.0 °F 80% 30.34 in 10.0 mi NNE 3.5 mph - N/A   Clear
1:53 AM 44.1 °F 42.5 °F 39.9 °F 85% 30.34 in 10.0 mi NNE 3.5 mph - N/A   Clear
2:53 AM 44.1 °F 40.1 °F 41.0 °F 89% 30.33 in 9.0 mi NNE 6.9 mph - N/A   Clear
3:53 AM 45.0 °F - 42.1 °F 90% 30.33 in 8.0 mi North - - N/A   Clear
4:53 AM 44.1 °F 40.8 °F 41.0 °F 89% 30.34 in 5.0 mi NNE 5.8 mph - N/A   Clear
5:18 AM 44.6 °F 42.2 °F 42.8 °F 93% 30.33 in 4.0 mi NE 4.6 mph - N/A   Partly Cloudy
5:53 AM 45.0 °F 43.5 °F 43.0 °F 93% 30.35 in 3.0 mi NE 3.5 mph - N/A   Clear
6:49 AM 44.6 °F 42.2 °F 42.8 °F 93% 30.35 in 3.0 mi NE 4.6 mph - N/A   Partly Cloudy
6:53 AM 45.0 °F 42.6 °F 43.0 °F 93% 30.36 in 3.0 mi NE 4.6 mph - N/A   Scattered Clouds
7:53 AM 46.9 °F - 44.1 °F 90% 30.37 in 5.0 mi NE 6.9 mph - N/A   Overcast
8:53 AM 50.0 °F - 44.1 °F 80% 30.39 in 8.0 mi ENE 6.9 mph - N/A   Overcast
9:53 AM 54.0 °F - 46.0 °F 75% 30.39 in 10.0 mi NE 5.8 mph - N/A   Overcast
10:53 AM 59.0 °F - 46.0 °F 62% 30.38 in 10.0 mi NNE 6.9 mph - N/A   Overcast
11:53 AM 61.0 °F - 46.9 °F 60% 30.35 in 10.0 mi NNE 5.8 mph - N/A   Overcast
12:02 PM 60.8 °F - 46.4 °F 59% 30.34 in 10.0 mi Calm Calm - N/A   Mostly Cloudy
12:53 PM 62.1 °F - 46.9 °F 58% 30.32 in 10.0 mi NNE 5.8 mph - N/A   Mostly Cloudy
1:53 PM 63.0 °F - 48.0 °F 58% 30.30 in 10.0 mi North 3.5 mph - N/A   Overcast
2:53 PM 64.0 °F - 48.0 °F 56% 30.29 in 10.0 mi Calm Calm - N/A   Mostly Cloudy
3:53 PM 63.0 °F - 46.9 °F 56% 30.28 in 10.0 mi NNE 4.6 mph - N/A   Partly Cloudy
4:53 PM 57.0 °F - 48.0 °F 72% 30.29 in 10.0 mi Calm Calm - N/A   Clear
5:53 PM 54.0 °F - 48.0 °F 80% 30.30 in 10.0 mi Calm Calm - N/A   Clear
6:53 PM 52.0 °F - 48.0 °F 86% 30.30 in 10.0 mi North 4.6 mph - N/A   Partly Cloudy
7:53 PM 55.0 °F - 48.9 °F 80% 30.32 in 10.0 mi NNE 5.8 mph - N/A   Overcast
8:53 PM 55.0 °F - 48.0 °F 77% 30.32 in 10.0 mi North 3.5 mph - N/A   Overcast
9:53 PM 54.0 °F - 46.9 °F 77% 30.31 in 10.0 mi NE 4.6 mph - N/A   Clear
10:53 PM 52.0 °F - 46.9 °F 83% 30.30 in 10.0 mi NE 3.5 mph - N/A   Partly Cloudy
11:53 PM 51.1 °F - 48.0 °F 89% 30.29 in 9.0 mi NNE 4.6 mph - N/A   Clear